Joplin, MO

6:56 PM CST on December 14, 2019 (GMT -0600)
Joplin Regional

Weather History for KJLN - October, 2019

Change the Weather History Date:

Sunday, October 20, 2019

  Actual Average Record
Temperature  
Mean Temperature 60 °F 59 °F  
Max Temperature 75 °F 70 °F 89 °F (1979)
Min Temperature 46 °F 47 °F 24 °F (1989)
Degree Days  
Heating Degree Days 4 7  
Month to date heating degree days 137 111  
Since 1 July heating degree days 137 153  
Cooling Degree Days 0 1  
Month to date cooling degree days 38 38  
Year to date cooling degree days 1696 1680  
Growing Degree Days 10 (Base 50)    
Moisture  
Dew Point 52 °F    
Average Humidity 86    
Maximum Humidity 100    
Minimum Humidity 46    
Precipitation  
Precipitation 0.67 in 0.14 in 4.35 in (1983)
Month to date precipitation 2.31 2.61  
Year to date precipitation 55.65 38.53  
Sea Level Pressure  
Sea Level Pressure 29.76 in    
Wind  
Wind Speed 5 mph ()    
Max Wind Speed 17 mph    
Max Gust Speed 25 mph    
Visibility 4.8 miles    
Events Fog , Rain , Thunderstorm    
T = Trace of Precipitation, MM = Missing Value Source: Averaged Metar Reports

Daily Weather History Graph

Daily Weather History Graph

Search for Another Location

Airport or City:

Astronomy

Oct. 20, 2019 Rise Set
Actual Time 7:30 AM CDT 6:34 PM CDT
Civil Twilight 7:03 AM CDT 7:01 PM CDT
Nautical Twilight 6:33 AM CDT 7:31 PM CDT
Astronomical Twilight 6:03 AM CDT 8:01 PM CDT
Moon 11:49 PM CDT (10/20) 1:53 PM CDT (10/20)
Length of Visible Light 11h 57m
Length of Day
11h 04m
Waning Gibbous, 59% of the Moon is Illuminated
Oct 20
Waning Gibbous
Oct 21
Last Quarter
Oct 27
New
Nov 4
First Quarter
Nov 12
Full

Hourly Weather History & Observations

Time (CDT) Temp. Dew Point Humidity Pressure Visibility Wind Dir Wind Speed Gust Speed Precip Events Conditions
12:49 AM 48.2 °F 48.2 °F 100% 29.85 in 1.8 mi NE 4.6 mph - N/A   Clear
12:53 AM 48.9 °F 48.0 °F 97% 29.84 in 1.2 mi ENE 4.6 mph - N/A   Clear
1:00 AM 51.1 °F 50.0 °F 96% 29.85 in 3.0 mi ENE 4.6 mph - N/A   Clear
1:43 AM 48.9 °F 48.9 °F 100% 29.85 in 1.5 mi Calm Calm - N/A   Clear
1:48 AM 50.0 °F 48.2 °F 94% 29.85 in 0.5 mi Calm Calm - N/A Fog Fog
1:53 AM 48.0 °F 48.0 °F 100% 29.84 in 0.2 mi East 3.5 mph - N/A Fog Fog
2:02 AM 46.9 °F 46.9 °F 100% 29.85 in 1.0 mi East 4.6 mph - N/A   Mist
2:16 AM 46.9 °F 46.9 °F 100% 29.84 in 0.8 mi East 4.6 mph - N/A   Mist
2:21 AM 48.0 °F 48.0 °F 100% 29.84 in 1.0 mi East 4.6 mph - N/A   Clear
2:29 AM 48.0 °F 48.0 °F 100% 29.84 in 3.0 mi East 4.6 mph - N/A   Clear
2:53 AM 48.9 °F 48.9 °F 100% 29.84 in 2.5 mi Calm Calm - N/A   Clear
3:01 AM 48.9 °F 48.0 °F 97% 29.85 in 1.2 mi Calm Calm - N/A   Clear
3:30 AM 48.0 °F 48.0 °F 100% 29.85 in 2.5 mi Calm Calm - N/A   Clear
3:44 AM 48.2 °F 48.2 °F 100% 29.85 in 1.0 mi Calm Calm - N/A   Clear
3:53 AM 48.0 °F 48.0 °F 100% 29.83 in 1.2 mi Calm Calm - N/A   Clear
4:05 AM 48.9 °F 48.0 °F 97% 29.84 in 0.8 mi Calm Calm - N/A   Clear
4:13 AM 48.2 °F 48.2 °F 100% 29.84 in 1.2 mi ESE 3.5 mph - N/A   Clear
4:19 AM 48.9 °F 48.9 °F 100% 29.84 in 0.5 mi ESE 3.5 mph - N/A Fog Fog
4:27 AM 48.9 °F 48.9 °F 100% 29.85 in 0.5 mi Calm Calm - N/A Fog Fog
4:42 AM 48.0 °F 48.0 °F 100% 29.84 in 1.0 mi ESE 3.5 mph - N/A   Clear
4:53 AM 48.0 °F 48.0 °F 100% 29.83 in 1.8 mi ESE 4.6 mph - N/A   Clear
4:59 AM 48.0 °F 48.0 °F 100% 29.84 in 3.0 mi ESE 5.8 mph - N/A   Clear
5:53 AM 48.9 °F 48.0 °F 97% 29.84 in 7.0 mi ESE 5.8 mph - N/A Fog Patches of Fog
6:53 AM 48.0 °F 46.9 °F 96% 29.83 in 8.0 mi ESE 8.1 mph - N/A Fog Patches of Fog
7:53 AM 48.0 °F 46.9 °F 96% 29.83 in 7.0 mi ESE 5.8 mph - N/A   Clear
8:53 AM 53.1 °F 51.1 °F 93% 29.85 in 10.0 mi ESE 8.1 mph - N/A   Clear
10:53 AM 63.0 °F 54.0 °F 72% 29.83 in 10.0 mi SE 10.4 mph - N/A   Clear
11:53 AM 66.9 °F 55.9 °F 68% 29.81 in 10.0 mi ESE 11.5 mph 17.3 mph N/A   Clear
12:53 PM 69.1 °F 57.0 °F 65% 29.78 in 10.0 mi SE 10.4 mph 18.4 mph N/A   Clear
1:53 PM 71.1 °F 57.0 °F 61% 29.73 in 10.0 mi SE 8.1 mph - N/A   Clear
2:53 PM 73.9 °F 55.9 °F 53% 29.69 in 10.0 mi SSE 16.1 mph - N/A   Clear
3:53 PM 75.0 °F 55.0 °F 50% 29.67 in 10.0 mi SSE 12.7 mph - N/A   Clear
4:53 PM 75.0 °F 54.0 °F 48% 29.65 in 10.0 mi SSE 11.5 mph - N/A   Clear
5:53 PM 73.0 °F 53.1 °F 49% 29.64 in 10.0 mi SE 6.9 mph - N/A   Clear
6:53 PM 69.1 °F 51.1 °F 53% 29.63 in 10.0 mi SE 8.1 mph - N/A   Clear
7:53 PM 66.9 °F 51.1 °F 57% 29.63 in 10.0 mi SE 10.4 mph - N/A   Mostly Cloudy
8:53 PM 66.9 °F 53.1 °F 61% 29.61 in 10.0 mi SE 11.5 mph 18.4 mph N/A   Partly Cloudy
9:53 PM 66.9 °F 55.9 °F 68% 29.55 in 10.0 mi SE 12.7 mph - N/A   Clear
10:44 PM 66.9 °F 57.9 °F 73% 29.55 in 10.0 mi SE 10.4 mph 18.4 mph N/A Thunderstorm Mostly Cloudy
10:53 PM 66.9 °F 57.9 °F 73% 29.55 in 10.0 mi Variable 6.9 mph - 0.00 in Rain , Thunderstorm Light Rain
11:06 PM 64.9 °F 60.1 °F 84% 29.59 in 6.0 mi West 11.5 mph - 0.02 in Rain , Thunderstorm Light Thunderstorms and Rain
11:26 PM 64.0 °F 61.0 °F 90% 29.58 in 1.8 mi WNW 9.2 mph - 0.08 in Rain , Thunderstorm Heavy Thunderstorms and Rain
11:40 PM 64.0 °F 62.1 °F 93% 29.60 in 2.5 mi West 8.1 mph - 0.16 in Rain , Thunderstorm Heavy Thunderstorms and Rain
11:49 PM 62.6 °F 60.8 °F 94% 29.58 in 1.5 mi West 13.8 mph 21.9 mph 0.29 in Rain , Thunderstorm Heavy Thunderstorms and Rain
11:53 PM 62.1 °F 59.0 °F 90% 29.59 in 1.2 mi WSW 10.4 mph 21.9 mph 0.35 in Rain , Thunderstorm Heavy Thunderstorms and Rain